Hourly Data Report for September 22, 2017

All times are specified in Local Standard Time (LST). Add 1 hour to adjust for Daylight Saving Time where and when it is observed.

KUGLUKTUK A
NUNAVUT

67°49'00.000" N
115°08'38.000" W
22.60 m
2300903
71938
YCO

Download Data

Hourly Data (September 2017)
Hourly Data Report for September 22, 2017
Temp Definition
°C
Dew Point Temp Definition
°C
Rel Hum Definition
%
Wind Dir Definition
10's deg

Wind Spd Definition
km/h
Visibility Definition
km
Stn Press Definition
kPa
Hmdx Definition


Wind Chill Definition


Weather Definition


TIME
00:00 Legend Double Dagger 1.8 0.9 94 7 8 24.1 101.94     LegendNANA
01:00 Legend Double Dagger -0.9 -1.0 99 20 11 3.2 101.92   -5 Fog
02:00 Legend Double Dagger -2.5 -2.6 99 19 15 1.6 101.91   -7 Fog
03:00 Legend Double Dagger -2.8 -3.2 97 20 10 9.7 101.90   -7 Fog
04:00 Legend Double Dagger -1.7 -1.9 99 21 15 16.1 101.89   -7 LegendNANA
05:00 Legend Double Dagger -1.5 -1.7 99 21 14 4.8 101.89   -6 Fog
06:00 Legend Double Dagger -1.1 -1.1 100 20 12 0.4 101.89   -5 Freezing Fog
07:00 Legend Double Dagger -0.5 -0.5 100 19 8 0.2 101.89   -3 Freezing Fog
08:00 Legend Double Dagger 0.7 0.7 100 19 7 0.2 101.87     Fog
09:00 Legend Double Dagger 1.4 1.4 100 19 10 0.6 101.87     Fog
10:00 Legend Double Dagger 2.2 2.2 100 17 8 24.1 101.86     LegendNANA
11:00 Legend Double Dagger 3.2 2.8 97 10 5 24.1 101.82     Cloudy
12:00 Legend Double Dagger 4.3 2.8 90 7 4 24.1 101.83     LegendNANA
13:00 Legend Double Dagger 5.0 2.7 85 7 9 24.1 101.82     LegendNANA
14:00 Legend Double Dagger 5.3 2.7 83 8 12 24.1 101.81     Cloudy
15:00 Legend Double Dagger 5.9 3.6 85 8 13 24.1 101.80     LegendNANA
16:00 Legend Double Dagger 6.2 3.7 84 9 13 24.1 101.76     LegendNANA
17:00 Legend Double Dagger 6.1 4.0 86 8 16 24.1 101.72     Cloudy
18:00 Legend Double Dagger 6.1 4.3 88 8 17 24.1 101.68     LegendNANA
19:00 Legend Double Dagger 5.5 4.0 90 9 13 24.1 101.68     LegendNANA
20:00 Legend Double Dagger 5.6 4.0 90 10 14 24.1 101.66     Rain
21:00 Legend Double Dagger 5.5 3.6 87 10 16 19.3 101.65     Rain
22:00 Legend Double Dagger 5.3 2.7 83 10 12 24.1 101.63     Rain
23:00 Legend Double Dagger 4.7 2.5 86 10 10 24.1 101.64     Cloudy

Notes on Data Quality.

Legend

  • E = Estimated
  • M = Missing
  • NA = Not Available
  • ‡ = Partner data that is not subject to review by the National Climate Archives
Date modified: